• In Moldova, Republic
  • List of Countries
  • For 7 days
  • Water Temperature
  • Satellite Maps
  • Weather Map
  • Weather Widgets
  • user-avatar
    Login

    Hourly Weather Darwin

    Today, 27 June, Tuesday

    Time Temperature Precipitation Wind Pressure Humidity
    00:00 +21°C° 0 mm 2 mps 760 mmHg 79%
    01:00 +21°C° 0 mm 2 mps 760 mmHg 80%
    02:00 +21°C° 0 mm 2 mps 760 mmHg 81%
    03:00 +20°C° 0 mm 2 mps 760 mmHg 84%
    04:00 +20°C° 0 mm 2 mps 760 mmHg 83%
    05:00 +20°C° 0 mm 2 mps 760 mmHg 81%
    06:00 +20°C° 0 mm 3 mps 760 mmHg 79%
    07:00 +22°C° 0 mm 3 mps 760 mmHg 72%
    08:00 +25°C° 0 mm 3 mps 760 mmHg 65%
    09:00 +27°C° 0 mm 3 mps 761 mmHg 55%
    10:00 +29°C° 0 mm 3 mps 760 mmHg 50%
    11:00 +31°C° 0 mm 2 mps 760 mmHg 45%
    12:00 +34°C° 0 mm 2 mps 760 mmHg 40%
    13:00 +34°C° 0 mm 2 mps 759 mmHg 39%
    14:00 +34°C° 0 mm 3 mps 759 mmHg 38%
    15:00 +35°C° 0 mm 3 mps 758 mmHg 37%
    16:00 +33°C° 0 mm 3 mps 758 mmHg 45%
    17:00 +30°C° 0 mm 3 mps 758 mmHg 53%
    18:00 +27°C° 0 mm 3 mps 758 mmHg 60%
    19:00 +26°C° 0 mm 2 mps 759 mmHg 68%
    20:00 +24°C° 0 mm 2 mps 759 mmHg 76%
    21:00 +23°C° 0 mm 2 mps 759 mmHg 80%
    22:00 +21°C° 0 mm 2 mps 760 mmHg 83%
    23:00 +21°C° 0 mm 2 mps 760 mmHg 85%

    Tomorrow, 28 June, Wednesday

    Time Temperature Precipitation Wind Pressure Humidity
    00:00 +21°C° 0 mm 2 mps 760 mmHg 87%
    01:00 +21°C° 0 mm 2 mps 760 mmHg 87%
    02:00 +21°C° 0 mm 2 mps 760 mmHg 87%
    03:00 +21°C° 0 mm 2 mps 760 mmHg 87%
    04:00 +21°C° 0 mm 2 mps 760 mmHg 86%
    05:00 +21°C° 0 mm 3 mps 760 mmHg 85%
    06:00 +21°C° 0 mm 3 mps 760 mmHg 85%
    07:00 +24°C° 0 mm 3 mps 760 mmHg 78%
    08:00 +25°C° 0 mm 4 mps 760 mmHg 71%
    09:00 +27°C° 0 mm 4 mps 760 mmHg 64%
    10:00 +29°C° 0 mm 4 mps 760 mmHg 57%
    11:00 +31°C° 0 mm 3 mps 760 mmHg 49%
    12:00 +34°C° 0 mm 3 mps 759 mmHg 41%
    13:00 +35°C° 0 mm 3 mps 759 mmHg 39%
    14:00 +35°C° 0 mm 3 mps 758 mmHg 37%
    15:00 +36°C° 0 mm 3 mps 758 mmHg 35%
    16:00 +34°C° 0 mm 3 mps 758 mmHg 43%
    17:00 +31°C° 0 mm 3 mps 758 mmHg 51%
    18:00 +28°C° 0 mm 3 mps 758 mmHg 58%
    19:00 +27°C° 0 mm 3 mps 759 mmHg 65%
    20:00 +26°C° 0 mm 2 mps 759 mmHg 73%
    21:00 +24°C° 0 mm 2 mps 760 mmHg 80%
    22:00 +24°C° 0 mm 2 mps 760 mmHg 82%
    23:00 +24°C° 0 mm 2 mps 760 mmHg 84%

    Day after tomorrow, 29 June, Thursday

    Time Temperature Precipitation Wind Pressure Humidity
    00:00 +24°C° 0 mm 2 mps 760 mmHg 86%
    01:00 +24°C° 0 mm 2 mps 760 mmHg 84%
    02:00 +24°C° 0 mm 2 mps 760 mmHg 82%
    03:00 +24°C° 0 mm 2 mps 759 mmHg 80%
    04:00 +22°C° 0 mm 3 mps 759 mmHg 78%
    05:00 +22°C° 0 mm 3 mps 759 mmHg 75%
    06:00 +22°C° 0 mm 4 mps 759 mmHg 73%
    07:00 +25°C° 0 mm 4 mps 760 mmHg 68%
    08:00 +26°C° 0 mm 4 mps 760 mmHg 64%
    09:00 +28°C° 0 mm 4 mps 761 mmHg 60%
    10:00 +30°C° 0 mm 4 mps 760 mmHg 52%
    11:00 +32°C° 0 mm 4 mps 760 mmHg 45%
    12:00 +34°C° 0 mm 4 mps 760 mmHg 37%
    13:00 +35°C° 0 mm 4 mps 759 mmHg 36%
    14:00 +35°C° 0 mm 4 mps 758 mmHg 36%
    15:00 +36°C° 0 mm 3 mps 758 mmHg 35%
    16:00 +33°C° 0 mm 3 mps 758 mmHg 43%
    17:00 +30°C° 0 mm 2 mps 758 mmHg 51%
    18:00 +28°C° 0 mm 1 mps 758 mmHg 59%
    19:00 +28°C° 0 mm 2 mps 759 mmHg 55%
    20:00 +29°C° 0 mm 3 mps 759 mmHg 51%
    21:00 +29°C° 0 mm 3 mps 760 mmHg 47%
    22:00 +29°C° 0 mm 4 mps 760 mmHg 49%
    23:00 +28°C° 0 mm 5 mps 760 mmHg 50%

    30 June, Friday

    Time Temperature Precipitation Wind Pressure Humidity
    00:00 +27°C° 0 mm 6 mps 760 mmHg 52%
    01:00 +27°C° 0 mm 6 mps 760 mmHg 52%
    02:00 +26°C° 0 mm 7 mps 760 mmHg 52%
    03:00 +24°C° 0 mm 7 mps 760 mmHg 53%
    04:00 +24°C° 0 mm 7 mps 760 mmHg 52%
    05:00 +23°C° 0 mm 8 mps 760 mmHg 52%
    06:00 +23°C° 0 mm 8 mps 760 mmHg 52%
    07:00 +24°C° 0 mm 8 mps 761 mmHg 50%
    08:00 +24°C° 0 mm 8 mps 761 mmHg 48%
    09:00 +26°C° 0 mm 8 mps 761 mmHg 45%
    10:00 +28°C° 0 mm 7 mps 761 mmHg 42%
    11:00 +30°C° 0 mm 7 mps 761 mmHg 38%
    12:00 +32°C° 0 mm 6 mps 760 mmHg 35%
    13:00 +33°C° 0 mm 6 mps 760 mmHg 34%
    14:00 +34°C° 0 mm 5 mps 759 mmHg 33%
    15:00 +34°C° 0 mm 5 mps 758 mmHg 32%
    16:00 +33°C° 0 mm 4 mps 758 mmHg 35%
    17:00 +30°C° 0 mm 3 mps 758 mmHg 38%
    18:00 +29°C° 0 mm 3 mps 759 mmHg 41%
    19:00 +28°C° 0 mm 3 mps 759 mmHg 41%
    20:00 +27°C° 0 mm 4 mps 760 mmHg 42%
    21:00 +26°C° 0 mm 5 mps 761 mmHg 42%
    22:00 +25°C° 0 mm 5 mps 761 mmHg 43%
    23:00 +25°C° 0 mm 5 mps 761 mmHg 43%

    1 July, Saturday

    Time Temperature Precipitation Wind Pressure Humidity
    00:00 +23°C° 0 mm 6 mps 761 mmHg 43%
    01:00 +23°C° 0 mm 6 mps 760 mmHg 45%
    02:00 +22°C° 0 mm 6 mps 760 mmHg 46%
    03:00 +22°C° 0 mm 6 mps 760 mmHg 47%
    04:00 +22°C° 0 mm 6 mps 760 mmHg 48%
    05:00 +21°C° 0 mm 6 mps 760 mmHg 49%
    06:00 +21°C° 0 mm 6 mps 760 mmHg 50%
    07:00 +22°C° 0 mm 6 mps 760 mmHg 48%
    08:00 +23°C° 0 mm 6 mps 761 mmHg 45%
    09:00 +26°C° 0 mm 6 mps 761 mmHg 42%
    10:00 +28°C° 0 mm 6 mps 760 mmHg 40%
    11:00 +30°C° 0 mm 5 mps 760 mmHg 38%
    12:00 +33°C° 0 mm 5 mps 759 mmHg 35%
    13:00 +34°C° 0 mm 4 mps 759 mmHg 35%
    14:00 +35°C° 0 mm 4 mps 758 mmHg 36%
    15:00 +36°C° 0 mm 4 mps 757 mmHg 36%
    16:00 +34°C° 0 mm 3 mps 758 mmHg 43%
    17:00 +31°C° 0 mm 3 mps 758 mmHg 49%
    18:00 +29°C° 0 mm 2 mps 758 mmHg 56%
    19:00 +28°C° 0 mm 2 mps 759 mmHg 60%
    20:00 +27°C° 0 mm 2 mps 759 mmHg 65%
    21:00 +26°C° 0 mm 2 mps 760 mmHg 69%
    22:00 +26°C° 0 mm 2 mps 760 mmHg 67%
    23:00 +26°C° 0 mm 2 mps 760 mmHg 66%

    2 July, Sunday

    Time Temperature Precipitation Wind Pressure Humidity
    00:00 +26°C° 0 mm 2 mps 760 mmHg 64%
    01:00 +26°C° 0 mm 3 mps 759 mmHg 64%
    02:00 +25°C° 0 mm 3 mps 759 mmHg 63%
    03:00 +25°C° 0 mm 3 mps 759 mmHg 63%
    04:00 +25°C° 0 mm 4 mps 759 mmHg 66%
    05:00 +25°C° 0 mm 4 mps 759 mmHg 68%
    06:00 +23°C° 0 mm 4 mps 759 mmHg 71%
    07:00 +26°C° 0 mm 4 mps 760 mmHg 68%
    08:00 +27°C° 0 mm 4 mps 760 mmHg 66%
    09:00 +28°C° 0 mm 4 mps 761 mmHg 64%
    10:00 +30°C° 0 mm 4 mps 760 mmHg 58%
    11:00 +33°C° 0 mm 4 mps 760 mmHg 51%
    12:00 +35°C° 0 mm 4 mps 759 mmHg 45%
    13:00 +35°C° 0.1 mm 4 mps 759 mmHg 46%
    14:00 +35°C° 0.1 mm 3 mps 758 mmHg 47%
    15:00 +35°C° 0.1 mm 3 mps 757 mmHg 48%
    16:00 +33°C° 0.3 mm 3 mps 758 mmHg 55%
    17:00 +31°C° 0.3 mm 2 mps 758 mmHg 63%
    18:00 +29°C° 0.3 mm 2 mps 759 mmHg 71%
    19:00 +28°C° 0.3 mm 2 mps 759 mmHg 75%
    20:00 +28°C° 0.3 mm 2 mps 760 mmHg 79%
    21:00 +27°C° 0.3 mm 2 mps 760 mmHg 84%
    22:00 +27°C° 0.8 mm 2 mps 760 mmHg 85%
    23:00 +26°C° 0.8 mm 2 mps 760 mmHg 86%
    Show more